Regional Weather Roundup
Issued by NWS

Home | Current Version | Previous Version | Graphics & Text | Print | Product List | Glossary On
Versions: 1 2 3 4 5 6 7 8 9 10 11 12 13 14 15 16 17 18 19 20 21 22 23 24 25 26 27 28 29 30 31 32 33 34 35 36 37 38 39 40 41 42 43 44 45 46 47 48 49 50
000
ASUS43 KIND 301859
RWRIN

WEATHER ROUNDUP FOR INDIANA
NATIONAL WEATHER SERVICE INDIANAPOLIS IN
300 PM EDT SUN AUG 30 2015

NOTE: "FAIR" INDICATES FEW OR NO CLOUDS BELOW 12,000 FEET WITH NO
SIGNIFICANT WEATHER AND/OR OBSTRUCTIONS TO VISIBILITY.

* - STATION DOES NOT REPORT WEATHER SUCH AS PRECIPITATION OR FOG.

+ - STATION NOT QUALITY CONTROLLED BY THE NATIONAL WEATHER SERVICE.
    USE DATA WITH CAUTION...ESPECIALLY DEWPOINT AND RELATIVE
    HUMIDITY OBSERVATIONS.

INZ001>003-010>013-019-020-302000-
NORTHWEST INDIANA

CITY           SKY/WX    TMP DP  RH WIND       PRES   REMARKS
GARY /AIRPORT/ CLOUDY    73  63  68 CALM      30.08S
KNOX *+        CLOUDY    72  68  88 CALM      30.06F
MONTICELLO +   CLOUDY    82  70  67 SW5       30.05S
RENSSELAER +   PTSUNNY   77  73  88 NW3       30.06F FOG

$$

LMZ046-743>745-302000-
SOUTHERN LAKE MICHIGAN

STATION/POSITION TIME  TEMP    WIND        PRES    WAVE
                       AIR SEA DIR/SP/G            HT
                 (UTC) (F)     (DEG/KT/KT) (MB)    (FT)
BURNS HARBOR     1800   68     320/  4/  6 1019.0F
MICHIGAN CITY    1800   70     250/  6/  6   N/A
5NW MICH CITY    1800   69 71  300/  6/  8   N/A     1

$$

INZ004-005-014>016-021>024-302000-
NORTH CENTRAL INDIANA

CITY           SKY/WX    TMP DP  RH WIND       PRES   REMARKS
ELKHART        CLOUDY    73  70  88 CALM      30.07F FOG
GOSHEN         PTSUNNY   77  69  76 NW5       30.06S
SOUTH BEND     CLOUDY    75  68  78 S5        30.07F
WARSAW +       PTSUNNY   81  68  65 W6        30.06S

$$

INZ006>009-017-018-025>027-302000-
NORTHEAST INDIANA

CITY           SKY/WX    TMP DP  RH WIND       PRES   REMARKS
ANGOLA *+      PTSUNNY   81  72  74 W5        30.06S
FORT WAYNE     MOSUNNY   83  66  56 SW12      30.05F

$$

INZ028-029-035-036-043>045-051>053-302000-
WEST CENTRAL INDIANA

CITY           SKY/WX    TMP DP  RH WIND       PRES   REMARKS
CRAWFORDSVL +  PTSUNNY   82  60  47 SW6       30.06F
GREENCASTLE +  PTSUNNY   81  63  54 S3        30.07F
LAFAYETTE      PTSUNNY   83  65  54 VRB6      30.04F
TERRE HAUTE    MOSUNNY   86  64  47 SW8       30.05F

$$

INZ030>032-037>040-046>048-054>057-064-065-302000-
CENTRAL INDIANA

CITY           SKY/WX    TMP DP  RH WIND       PRES   REMARKS
COLUMBUS       SUNNY     84  63  48 W7        30.07F
FRANKFORT +    SUNNY     84  68  57 S7        30.08S
GREENWOOD *+   MOSUNNY   84  63  48 W9        30.07F
INDIANAPOLIS   MOSUNNY   85  62  46 S14       30.06F
-EAGLE CREEK   MOSUNNY   84  62  47 SW8       30.06F
KOKOMO *+      PTSUNNY   84  66  54 SW12      30.05F
MT COMFORT *+  MOSUNNY   86  52  30 W6        30.07F
SHELBYVILLE    MOSUNNY   86  65  49 W6        30.06F

$$

INZ033-034-041-042-049-050-058-059-302000-
EAST CENTRAL INDIANA

CITY           SKY/WX    TMP DP  RH WIND       PRES   REMARKS
MUNCIE         SUNNY     84  65  52 SW10      30.06F

$$

INZ060-061-067>069-081>083-085>088-302000-
SOUTHWEST INDIANA

CITY           SKY/WX    TMP DP  RH WIND       PRES   REMARKS
EVANSVILLE     MOSUNNY   83  69  62 S8        30.07F
HUNTINGBURG *+ PTSUNNY   86  70  58 S13       30.07F

$$

INZ062-063-066-070>080-084-089>092-302000-
SOUTH CENTRAL AND SOUTHEAST INDIANA

CITY           SKY/WX    TMP DP  RH WIND       PRES   REMARKS
BLOOMINGTON    MOSUNNY   84  66  54 SW5       30.08F
MADISON *+     MOSUNNY   86  64  48 W3        30.10F
SEYMOUR +      MOSUNNY   88  64  45 S6        30.06F

$$




USA.gov is the U.S. government's official web portal to all federal, state and local government web resources and services.